SKW3368 KSAN-KSMF

Flight info

Callsign SKW3368
Flight time 1h 16m
Altitude 32000
Route PADRZ2 EHF NURAY SUUTR4
Aircraft E175/M-SDE3GILORVW/S

Departure

Time 2026-05-07 03:41
Airport San Diego International Airport (KSAN)

Arrival

Time 2026-05-07 04:57
Airport Sacramento International Airport (KSMF)
Time Latitude Longitude Altitude Speed Heading
2026-05-07 03:07 32.73393 -117.20050 20 ft 0 kts 253°
2026-05-07 03:28 32.73397 -117.20031 20 ft 4 kts 256°
2026-05-07 03:29 32.73402 -117.19999 23 ft 4 kts 269°
2026-05-07 03:29 32.73396 -117.19974 22 ft 4 kts 340°
2026-05-07 03:29 32.73386 -117.19974 21 ft 1 kts 12°
2026-05-07 03:35 32.73398 -117.19971 23 ft 5 kts 12°
2026-05-07 03:36 32.73461 -117.19955 20 ft 13 kts 13°
2026-05-07 03:36 32.73482 -117.19913 21 ft 6 kts 105°
2026-05-07 03:36 32.73464 -117.19840 21 ft 12 kts 106°
2026-05-07 03:36 32.73435 -117.19718 21 ft 19 kts 105°
2026-05-07 03:37 32.73397 -117.19565 21 ft 20 kts 106°
2026-05-07 03:37 32.73360 -117.19413 20 ft 19 kts 105°
2026-05-07 03:37 32.73321 -117.19250 20 ft 21 kts 107°
2026-05-07 03:37 32.73278 -117.19074 20 ft 23 kts 105°
2026-05-07 03:38 32.73233 -117.18886 20 ft 24 kts 105°
2026-05-07 03:38 32.73186 -117.18686 26 ft 26 kts 108°
2026-05-07 03:38 32.73132 -117.18478 23 ft 27 kts 102°
2026-05-07 03:38 32.73088 -117.18290 23 ft 22 kts 106°
2026-05-07 03:39 32.73044 -117.18107 23 ft 24 kts 107°
2026-05-07 03:39 32.73015 -117.17984 23 ft 24 kts 107°
2026-05-07 03:39 32.72969 -117.17809 23 ft 22 kts 109°
2026-05-07 03:39 32.72960 -117.17662 25 ft 18 kts 73°
2026-05-07 03:40 32.73013 -117.17567 24 ft 7 kts 342°
2026-05-07 03:40 32.73023 -117.17584 23 ft 1 kts 281°
2026-05-07 03:40 32.73073 -117.17788 23 ft 60 kts 287°
2026-05-07 03:40 32.73252 -117.18535 25 ft 126 kts 286°
2026-05-07 03:41 32.73538 -117.19698 316 ft 155 kts 288°
2026-05-07 03:41 32.73840 -117.20970 1045 ft 166 kts 287°
2026-05-07 03:41 32.74136 -117.22299 1719 ft 171 kts 292°
2026-05-07 03:41 32.74784 -117.23519 2267 ft 180 kts 311°
2026-05-07 03:42 32.75622 -117.24666 2893 ft 189 kts 311°
2026-05-07 03:42 32.76463 -117.25926 3476 ft 200 kts 307°
2026-05-07 03:42 32.77317 -117.27331 3997 ft 220 kts 306°
2026-05-07 03:42 32.78245 -117.28907 4441 ft 247 kts 306°
2026-05-07 03:43 32.79248 -117.30635 5065 ft 266 kts 306°
2026-05-07 03:43 32.80317 -117.32471 5912 ft 273 kts 308°
2026-05-07 03:43 32.81473 -117.34276 6805 ft 276 kts 310°
2026-05-07 03:43 32.82666 -117.36076 7657 ft 279 kts 311°
2026-05-07 03:44 32.83872 -117.37915 8454 ft 283 kts 311°
2026-05-07 03:44 32.85086 -117.39786 9210 ft 287 kts 311°
2026-05-07 03:44 32.86313 -117.41682 9915 ft 292 kts 312°
2026-05-07 03:44 32.87580 -117.43644 10255 ft 308 kts 312°
2026-05-07 03:45 32.88929 -117.45729 10451 ft 327 kts 311°
2026-05-07 03:45 32.90351 -117.47938 10643 ft 345 kts 311°
2026-05-07 03:45 32.91828 -117.50239 11069 ft 352 kts 311°
2026-05-07 03:45 32.93320 -117.52569 11664 ft 355 kts 311°
2026-05-07 03:46 32.94825 -117.54918 12309 ft 358 kts 311°
2026-05-07 03:46 32.96321 -117.57253 12994 ft 360 kts 311°
2026-05-07 03:46 32.97860 -117.59654 13735 ft 362 kts 311°
2026-05-07 03:46 32.99377 -117.62023 14430 ft 363 kts 311°
2026-05-07 03:47 33.00912 -117.64419 15093 ft 366 kts 311°
2026-05-07 03:47 33.02464 -117.66843 15746 ft 369 kts 311°
2026-05-07 03:47 33.04029 -117.69292 16393 ft 372 kts 311°
2026-05-07 03:47 33.05604 -117.71757 17024 ft 374 kts 311°
2026-05-07 03:48 33.07370 -117.74015 17616 ft 373 kts 321°
2026-05-07 03:48 33.09334 -117.76043 18231 ft 374 kts 323°
2026-05-07 03:48 33.11339 -117.78047 18798 ft 377 kts 323°
2026-05-07 03:48 33.13324 -117.80044 19349 ft 380 kts 323°
2026-05-07 03:49 33.15352 -117.82095 19933 ft 383 kts 323°
2026-05-07 03:49 33.17390 -117.84162 20520 ft 386 kts 323°
2026-05-07 03:49 33.19444 -117.86248 21099 ft 389 kts 323°
2026-05-07 03:49 33.21534 -117.88327 21646 ft 392 kts 325°
2026-05-07 03:50 33.23662 -117.90384 22191 ft 395 kts 325°
2026-05-07 03:50 33.25806 -117.92461 22723 ft 398 kts 325°
2026-05-07 03:50 33.27962 -117.94557 23232 ft 401 kts 325°
2026-05-07 03:50 33.30134 -117.96675 23722 ft 404 kts 325°
2026-05-07 03:51 33.32313 -117.98804 24136 ft 406 kts 325°
2026-05-07 03:51 33.34484 -118.00927 24556 ft 408 kts 325°
2026-05-07 03:51 33.36690 -118.03087 24987 ft 411 kts 325°
2026-05-07 03:51 33.38910 -118.05260 25394 ft 414 kts 325°
2026-05-07 03:52 33.41144 -118.07449 25855 ft 414 kts 325°
2026-05-07 03:52 33.43363 -118.09629 26464 ft 412 kts 325°
2026-05-07 03:52 33.45578 -118.11805 27056 ft 410 kts 325°
2026-05-07 03:52 33.47779 -118.13968 27637 ft 408 kts 325°
2026-05-07 03:53 33.49972 -118.16123 28193 ft 407 kts 325°
2026-05-07 03:53 33.52160 -118.18275 28708 ft 406 kts 325°
2026-05-07 03:53 33.54315 -118.20396 29218 ft 405 kts 325°
2026-05-07 03:53 33.56492 -118.22538 29737 ft 403 kts 327°
2026-05-07 03:54 33.58852 -118.24296 30178 ft 396 kts 338°
2026-05-07 03:54 33.61336 -118.25706 30636 ft 393 kts 340°
2026-05-07 03:54 33.63824 -118.27076 31069 ft 392 kts 340°
2026-05-07 03:54 33.66297 -118.28433 31492 ft 391 kts 340°
2026-05-07 03:55 33.68769 -118.29789 31901 ft 389 kts 340°
2026-05-07 03:55 33.71233 -118.31144 32207 ft 392 kts 340°
2026-05-07 03:55 33.73748 -118.32520 32193 ft 402 kts 340°
2026-05-07 03:56 33.78976 -118.35310 32090 ft 421 kts 341°
2026-05-07 03:56 33.84446 -118.38022 32095 ft 436 kts 341°
2026-05-07 03:57 33.90099 -118.40866 32083 ft 441 kts 341°
2026-05-07 03:57 33.95765 -118.43732 32085 ft 442 kts 341°
2026-05-07 03:58 34.01540 -118.46125 32108 ft 436 kts 354°
2026-05-07 03:58 34.07546 -118.47106 32077 ft 435 kts 355°
2026-05-07 03:59 34.13559 -118.48032 32059 ft 436 kts 355°
2026-05-07 03:59 34.19582 -118.48958 32059 ft 435 kts 355°
2026-05-07 04:00 34.25576 -118.49881 32063 ft 438 kts 355°
2026-05-07 04:00 34.31617 -118.50812 32047 ft 437 kts 355°
2026-05-07 04:01 34.37653 -118.51743 32048 ft 437 kts 355°
2026-05-07 04:01 34.43688 -118.52677 32051 ft 438 kts 355°
2026-05-07 04:02 34.49743 -118.53614 32058 ft 438 kts 355°
2026-05-07 04:02 34.55794 -118.54551 32059 ft 438 kts 354°
2026-05-07 04:03 34.61844 -118.55494 32069 ft 438 kts 354°
2026-05-07 04:03 34.67894 -118.56426 32073 ft 436 kts 354°
2026-05-07 04:04 34.73926 -118.57365 32088 ft 437 kts 354°
2026-05-07 04:04 34.79955 -118.58310 32084 ft 437 kts 354°
2026-05-07 04:05 34.85990 -118.59254 32115 ft 437 kts 354°
2026-05-07 04:05 34.92027 -118.60198 32136 ft 437 kts 354°
2026-05-07 04:06 34.98055 -118.61154 32170 ft 438 kts 352°
2026-05-07 04:06 35.00986 -118.62205 32193 ft 443 kts 339°
2026-05-07 04:06 35.03626 -118.64158 32209 ft 448 kts 326°
2026-05-07 04:07 35.08448 -118.68933 32155 ft 448 kts 323°
2026-05-07 04:07 35.13258 -118.73814 32158 ft 450 kts 323°
2026-05-07 04:08 35.18075 -118.78710 32101 ft 449 kts 323°
2026-05-07 04:08 35.22884 -118.83601 32096 ft 449 kts 323°
2026-05-07 04:09 35.27690 -118.88494 32095 ft 449 kts 323°
2026-05-07 04:09 35.32486 -118.93387 32107 ft 449 kts 323°
2026-05-07 04:10 35.37288 -118.98294 32114 ft 449 kts 323°
2026-05-07 04:10 35.42089 -119.03209 32112 ft 449 kts 323°
2026-05-07 04:11 35.46881 -119.08122 32084 ft 448 kts 323°
2026-05-07 04:11 35.49460 -119.10215 32102 ft 444 kts 336°
2026-05-07 04:11 35.52265 -119.11809 32117 ft 443 kts 338°
2026-05-07 04:12 35.57880 -119.14803 32093 ft 443 kts 339°
2026-05-07 04:12 35.63530 -119.17817 32106 ft 442 kts 338°
2026-05-07 04:13 35.69176 -119.20840 32110 ft 442 kts 338°
2026-05-07 04:13 35.74821 -119.23869 32110 ft 442 kts 338°
2026-05-07 04:14 35.80468 -119.26906 32101 ft 443 kts 338°
2026-05-07 04:14 35.86129 -119.29953 32095 ft 444 kts 338°
2026-05-07 04:15 35.91787 -119.33003 32099 ft 444 kts 338°
2026-05-07 04:15 35.97447 -119.36060 32103 ft 444 kts 338°
2026-05-07 04:16 36.03115 -119.39125 32095 ft 445 kts 338°
2026-05-07 04:16 36.08780 -119.42195 32098 ft 445 kts 338°
2026-05-07 04:17 36.14412 -119.45251 32105 ft 445 kts 338°
2026-05-07 04:17 36.20085 -119.48334 32111 ft 445 kts 338°
2026-05-07 04:18 36.25764 -119.51425 32110 ft 445 kts 338°
2026-05-07 04:18 36.31442 -119.54520 32110 ft 445 kts 338°
2026-05-07 04:19 36.37114 -119.57618 32117 ft 445 kts 338°
2026-05-07 04:19 36.42787 -119.60721 32113 ft 445 kts 338°
2026-05-07 04:20 36.48459 -119.63828 32104 ft 445 kts 338°
2026-05-07 04:20 36.54134 -119.66942 32099 ft 445 kts 338°
2026-05-07 04:21 36.62493 -119.71958 32130 ft 447 kts 329°
2026-05-07 04:21 36.67635 -119.76222 32125 ft 447 kts 328°
2026-05-07 04:22 36.72850 -119.80427 32129 ft 447 kts 329°
2026-05-07 04:22 36.78095 -119.84603 32130 ft 447 kts 329°
2026-05-07 04:23 36.83339 -119.88775 32126 ft 447 kts 329°
2026-05-07 04:23 36.88586 -119.92954 32114 ft 447 kts 329°
2026-05-07 04:24 36.93825 -119.97134 32113 ft 446 kts 329°
2026-05-07 04:24 36.99058 -120.01315 32119 ft 446 kts 329°
2026-05-07 04:25 37.04288 -120.05502 32120 ft 446 kts 329°
2026-05-07 04:25 37.08632 -120.08984 32119 ft 446 kts 329°
2026-05-07 04:26 37.14611 -120.13788 31602 ft 422 kts 329°
2026-05-07 04:26 37.17051 -120.15751 31043 ft 414 kts 329°
2026-05-07 04:26 37.18682 -120.17063 30660 ft 410 kts 329°
2026-05-07 04:27 37.21062 -120.18979 30068 ft 403 kts 329°
2026-05-07 04:27 37.23399 -120.20862 29573 ft 394 kts 329°
2026-05-07 04:27 37.25692 -120.22710 29026 ft 389 kts 329°
2026-05-07 04:27 37.27974 -120.24549 28542 ft 393 kts 329°
2026-05-07 04:28 37.30276 -120.26376 28002 ft 398 kts 330°
2026-05-07 04:28 37.32634 -120.28200 27469 ft 399 kts 330°
2026-05-07 04:28 37.34989 -120.30023 26955 ft 396 kts 330°
2026-05-07 04:28 37.37328 -120.31840 26410 ft 393 kts 330°
2026-05-07 04:29 37.39637 -120.33638 25906 ft 389 kts 330°
2026-05-07 04:29 37.41932 -120.35429 25377 ft 386 kts 329°
2026-05-07 04:29 37.44204 -120.37204 24859 ft 383 kts 329°
2026-05-07 04:29 37.46459 -120.38975 24363 ft 381 kts 328°
2026-05-07 04:30 37.48564 -120.40979 23857 ft 379 kts 323°
2026-05-07 04:30 37.50633 -120.43042 23309 ft 377 kts 323°
2026-05-07 04:30 37.52669 -120.45085 22859 ft 373 kts 323°
2026-05-07 04:30 37.54699 -120.47121 22349 ft 372 kts 323°
2026-05-07 04:31 37.56724 -120.49156 21861 ft 371 kts 323°
2026-05-07 04:31 37.58737 -120.51177 21383 ft 369 kts 323°
2026-05-07 04:31 37.60707 -120.53158 21035 ft 365 kts 323°
2026-05-07 04:31 37.62723 -120.55176 20640 ft 365 kts 323°
2026-05-07 04:32 37.64680 -120.57136 20403 ft 363 kts 323°
2026-05-07 04:32 37.66659 -120.59117 20125 ft 363 kts 323°
2026-05-07 04:32 37.68633 -120.61097 19839 ft 363 kts 323°
2026-05-07 04:32 37.70606 -120.63078 19549 ft 362 kts 323°
2026-05-07 04:33 37.72574 -120.65055 19270 ft 361 kts 323°
2026-05-07 04:33 37.74538 -120.67030 18932 ft 360 kts 323°
2026-05-07 04:33 37.76492 -120.68997 18650 ft 358 kts 323°
2026-05-07 04:33 37.78436 -120.70953 18300 ft 357 kts 323°
2026-05-07 04:34 37.80372 -120.72903 18004 ft 354 kts 323°
2026-05-07 04:34 37.82298 -120.74846 17667 ft 354 kts 323°
2026-05-07 04:34 37.84224 -120.76788 17227 ft 353 kts 323°
2026-05-07 04:34 37.86133 -120.78716 16941 ft 350 kts 323°
2026-05-07 04:35 37.88032 -120.80640 16599 ft 349 kts 323°
2026-05-07 04:35 37.89922 -120.82563 16276 ft 348 kts 323°
2026-05-07 04:35 37.91808 -120.84480 15943 ft 347 kts 323°
2026-05-07 04:35 37.93687 -120.86393 15611 ft 346 kts 323°
2026-05-07 04:36 37.95558 -120.88297 15282 ft 344 kts 322°
2026-05-07 04:36 37.97423 -120.90197 14969 ft 343 kts 322°
2026-05-07 04:36 37.99264 -120.92075 14629 ft 335 kts 322°
2026-05-07 04:36 38.01057 -120.93904 14294 ft 326 kts 322°
2026-05-07 04:37 38.02805 -120.95688 13992 ft 318 kts 322°
2026-05-07 04:37 38.04484 -120.97401 13671 ft 310 kts 322°
2026-05-07 04:37 38.06141 -120.99095 13379 ft 303 kts 321°
2026-05-07 04:37 38.07778 -121.00776 13002 ft 303 kts 320°
2026-05-07 04:38 38.09234 -121.02708 12687 ft 304 kts 309°
2026-05-07 04:38 38.10559 -121.04816 12262 ft 307 kts 309°
2026-05-07 04:38 38.11902 -121.06922 11836 ft 306 kts 310°
2026-05-07 04:38 38.13263 -121.08988 11418 ft 304 kts 310°
2026-05-07 04:39 38.14633 -121.11027 11019 ft 302 kts 311°
2026-05-07 04:39 38.15997 -121.13043 10623 ft 300 kts 311°
2026-05-07 04:39 38.17354 -121.15044 10229 ft 298 kts 311°
2026-05-07 04:39 38.18698 -121.17024 9827 ft 292 kts 311°
2026-05-07 04:40 38.19996 -121.18938 9458 ft 283 kts 311°
2026-05-07 04:40 38.21285 -121.20835 9224 ft 283 kts 311°
2026-05-07 04:40 38.22605 -121.22721 9112 ft 287 kts 315°
2026-05-07 04:40 38.24032 -121.24495 9082 ft 289 kts 316°
2026-05-07 04:41 38.25476 -121.26262 8973 ft 285 kts 316°
2026-05-07 04:41 38.26889 -121.28016 8989 ft 288 kts 316°
2026-05-07 04:41 38.28315 -121.29806 8997 ft 288 kts 316°
2026-05-07 04:41 38.29740 -121.31606 9002 ft 289 kts 316°
2026-05-07 04:42 38.31162 -121.33407 9008 ft 289 kts 315°
2026-05-07 04:42 38.32586 -121.35210 9003 ft 288 kts 315°
2026-05-07 04:42 38.34004 -121.37009 9002 ft 288 kts 315°
2026-05-07 04:42 38.35425 -121.38814 9002 ft 288 kts 315°
2026-05-07 04:43 38.36846 -121.40619 8999 ft 289 kts 315°
2026-05-07 04:43 38.38269 -121.42429 9001 ft 289 kts 315°
2026-05-07 04:43 38.39687 -121.44234 9002 ft 288 kts 315°
2026-05-07 04:43 38.41108 -121.46042 9004 ft 288 kts 315°
2026-05-07 04:44 38.42533 -121.47856 9008 ft 289 kts 315°
2026-05-07 04:44 38.43953 -121.49665 9011 ft 288 kts 315°
2026-05-07 04:44 38.45374 -121.51477 9010 ft 289 kts 315°
2026-05-07 04:44 38.46780 -121.53271 8896 ft 290 kts 315°
2026-05-07 04:45 38.48225 -121.55081 8671 ft 285 kts 319°
2026-05-07 04:45 38.49748 -121.56634 8507 ft 284 kts 323°
2026-05-07 04:45 38.51342 -121.58143 8148 ft 285 kts 323°
2026-05-07 04:45 38.52906 -121.59658 7764 ft 279 kts 322°
2026-05-07 04:46 38.54429 -121.61166 7417 ft 273 kts 322°
2026-05-07 04:46 38.55923 -121.62660 7103 ft 273 kts 322°
2026-05-07 04:46 38.57422 -121.64166 6755 ft 272 kts 322°
2026-05-07 04:46 38.59012 -121.65404 6406 ft 267 kts 336°
2026-05-07 04:47 38.60776 -121.66141 6097 ft 268 kts 345°
2026-05-07 04:47 38.62584 -121.66742 5703 ft 266 kts 345°
2026-05-07 04:47 38.64355 -121.67362 5344 ft 262 kts 344°
2026-05-07 04:47 38.66104 -121.68010 5004 ft 261 kts 344°
2026-05-07 04:48 38.67841 -121.68667 4638 ft 259 kts 344°
2026-05-07 04:48 38.69571 -121.69328 4307 ft 258 kts 343°
2026-05-07 04:48 38.71277 -121.69959 4184 ft 255 kts 349°
2026-05-07 04:48 38.73058 -121.69926 4128 ft 258 kts
2026-05-07 04:49 38.74819 -121.69715 4035 ft 258 kts
2026-05-07 04:49 38.76615 -121.69715 3986 ft 257 kts 359°
2026-05-07 04:49 38.78393 -121.69730 3990 ft 249 kts 360°
2026-05-07 04:49 38.80051 -121.69663 3937 ft 230 kts
2026-05-07 04:50 38.81604 -121.69581 3891 ft 219 kts
2026-05-07 04:50 38.83106 -121.69532 3941 ft 216 kts
2026-05-07 04:50 38.84602 -121.69480 3755 ft 212 kts
2026-05-07 04:50 38.86091 -121.69422 3599 ft 215 kts
2026-05-07 04:51 38.87597 -121.69353 3435 ft 216 kts
2026-05-07 04:51 38.89099 -121.69273 3285 ft 216 kts
2026-05-07 04:51 38.90539 -121.68722 3132 ft 220 kts 32°
2026-05-07 04:51 38.91466 -121.67190 2978 ft 222 kts 71°
2026-05-07 04:52 38.91465 -121.65243 3078 ft 224 kts 104°
2026-05-07 04:52 38.91072 -121.63316 2933 ft 227 kts 103°
2026-05-07 04:52 38.90706 -121.61385 2716 ft 222 kts 103°
2026-05-07 04:52 38.89982 -121.59726 2444 ft 213 kts 143°
2026-05-07 04:53 38.88580 -121.59306 2185 ft 210 kts 185°
2026-05-07 04:53 38.87162 -121.59750 2017 ft 209 kts 189°
2026-05-07 04:53 38.85725 -121.59901 1825 ft 207 kts 178°
2026-05-07 04:53 38.84312 -121.59834 1850 ft 204 kts 179°
2026-05-07 04:54 38.82940 -121.59898 1763 ft 189 kts 182°
2026-05-07 04:54 38.81669 -121.59938 1731 ft 179 kts 179°
2026-05-07 04:54 38.80440 -121.59937 1731 ft 174 kts 179°
2026-05-07 04:54 38.79272 -121.59964 1886 ft 169 kts 180°
2026-05-07 04:55 38.78065 -121.59989 1479 ft 170 kts 180°
2026-05-07 04:55 38.76922 -121.60008 1258 ft 161 kts 180°
2026-05-07 04:55 38.75843 -121.60026 1050 ft 147 kts 182°
2026-05-07 04:55 38.74873 -121.60033 877 ft 135 kts 182°
2026-05-07 04:56 38.73941 -121.60057 694 ft 134 kts 180°
2026-05-07 04:56 38.73012 -121.60073 520 ft 133 kts 180°
2026-05-07 04:56 38.72102 -121.60082 346 ft 129 kts 180°
2026-05-07 04:56 38.71181 -121.60103 172 ft 134 kts 181°
2026-05-07 04:57 38.70284 -121.60114 25 ft 118 kts 180°
2026-05-07 04:57 38.69607 -121.60128 19 ft 75 kts 180°
2026-05-07 04:57 38.69210 -121.60135 21 ft 38 kts 178°
2026-05-07 04:57 38.69071 -121.60107 23 ft 14 kts 127°
2026-05-07 04:58 38.69064 -121.59991 21 ft 13 kts 95°
2026-05-07 04:58 38.69076 -121.59886 22 ft 12 kts 29°
2026-05-07 04:58 38.69162 -121.59872 21 ft 14 kts 360°
2026-05-07 04:58 38.69266 -121.59871 21 ft 16 kts
2026-05-07 04:59 38.69388 -121.59868 21 ft 19 kts
2026-05-07 04:59 38.69511 -121.59866 21 ft 17 kts 359°
2026-05-07 04:59 38.69638 -121.59865 21 ft 14 kts
2026-05-07 04:59 38.69701 -121.59813 21 ft 11 kts 89°
2026-05-07 05:00 38.69701 -121.59704 21 ft 14 kts 90°
2026-05-07 05:00 38.69699 -121.59572 21 ft 16 kts 90°
2026-05-07 05:00 38.69697 -121.59418 21 ft 18 kts 91°
2026-05-07 05:00 38.69695 -121.59261 21 ft 16 kts 91°
2026-05-07 05:01 38.69695 -121.59125 21 ft 14 kts 88°
2026-05-07 05:01 38.69693 -121.58995 21 ft 14 kts 92°
2026-05-07 05:01 38.69658 -121.58915 21 ft 9 kts 176°
2026-05-07 05:01 38.69588 -121.58918 21 ft 11 kts 182°
2026-05-07 05:02 38.69506 -121.58918 22 ft 12 kts 184°
2026-05-07 05:02 38.69459 -121.58991 23 ft 12 kts 269°
2026-05-07 05:02 38.69462 -121.59088 21 ft 10 kts 272°
2026-05-07 05:02 38.69464 -121.59170 21 ft 7 kts 277°
2026-05-07 05:03 38.69480 -121.59188 23 ft 3 kts 353°
2026-05-07 05:03 38.69509 -121.59188 21 ft 3 kts
2026-05-07 05:03 38.69519 -121.59188 21 ft 0 kts